Weather History for Abu Dhabi International Airport, UAE

Change the Weather History Date:

Friday, August 16, 2013

  Actual Average Record
Temperature  
Mean Temperature 99 °F -  
Max Temperature 109 °F 104 °F - ()
Min Temperature 89 °F 81 °F - ()
Cooling Degree Days 34    
Growing Degree Days 49 (Base 50)    
Moisture  
Dew Point 72 °F    
Average Humidity 43    
Maximum Humidity 66    
Minimum Humidity 17    
Precipitation  
Precipitation 0.00 in 0.00 in - ()
Sea Level Pressure  
Sea Level Pressure 29.48 in    
Wind  
Wind Speed 7 mph ()    
Max Wind Speed 20 mph    
Max Gust Speed -    
Visibility 4.8 miles    
Events      
T = Trace of Precipitation, MM = Missing Value Source: Averaged Metar Reports

Daily Weather History Graph

Daily Weather History Graph

Search for Another Location

Airport:

Trip Planner

Search our weather history database for the weather conditions in past years. The results will help you decide how hot, cold, wet, or windy it might be!

Date:

Astronomy

Aug. 16, 2013 Rise Set
Actual Time 5:56 AM GST 6:54 PM GST
Civil Twilight 5:32 AM GST 7:18 PM GST
Nautical Twilight 5:04 AM GST 7:46 PM GST
Astronomical Twilight 4:36 AM GST 8:14 PM GST
Moon 2:37 PM GST (8/16) 12:48 AM GST (8/16)
Length of Visible Light 13h 45m
Length of Day
12h 58m
Waxing Gibbous, 71% of the Moon is Illuminated
Aug 16
Waxing Gibbous
Aug 21
Full
Aug 28
Last Quarter
Sep 5
New
Sep 12
First Quarter

Hourly Weather History & Observations

Time (GST) Temp. Heat Index Dew Point Humidity Pressure Visibility Wind Dir Wind Speed Gust Speed Precip Events Conditions
12:00 AM 93.2 °F 110.2 °F 78.8 °F 63% 29.50 in - East 5.8 mph - N/A   Clear
1:00 AM 95.0 °F 109.7 °F 77.0 °F 56% 29.47 in - East 5.8 mph - N/A   Clear
2:00 AM 93.2 °F 107.2 °F 77.0 °F 59% 29.44 in - ESE 6.9 mph - N/A   Clear
3:00 AM 91.4 °F 105.1 °F 77.0 °F 63% 29.44 in - SSW 5.8 mph - N/A   Clear
4:00 AM 92 °F - 76 °F 51% 29.47 in 6 mi SSE 5.8 mph - -  
4:00 AM 91.4 °F 102.5 °F 75.2 °F 59% 29.44 in - SSE 5.8 mph - N/A   Clear
5:00 AM 91.4 °F 105.1 °F 77.0 °F 63% 29.47 in - East 3.5 mph - N/A   Clear
6:00 AM 91.4 °F 102.5 °F 75.2 °F 59% 29.50 in - ESE 5.8 mph - N/A   Clear
7:00 AM 90 °F - 76 °F 56%  in 6 mi North 8.1 mph - -  
7:00 AM 89.6 °F 102.2 °F 77.0 °F 66% 29.53 in - North 8.1 mph - N/A   Clear
8:00 AM 91.4 °F 105.1 °F 77.0 °F 63% 29.53 in 5.6 mi ESE 6.9 mph - N/A   Unknown
9:00 AM 96.8 °F 109.6 °F 75.2 °F 50% 29.53 in 5.6 mi South 9.2 mph - N/A   Unknown
10:00 AM 100.4 °F 111.9 °F 73.4 °F 42% 29.53 in 5.6 mi South 9.2 mph - N/A   Unknown
11:00 AM 102.2 °F 110.0 °F 69.8 °F 35% 29.53 in 5.6 mi South 5.8 mph - N/A   Unknown
12:00 PM 107.6 °F 115.0 °F 68.0 °F 28% 29.50 in 5.6 mi SSW 5.8 mph - N/A   Unknown
1:00 PM 109 °F - 66 °F 17% 29.47 in 6 mi NNW 3.5 mph - -   Widespread Dust
1:00 PM 109.4 °F 115.6 °F 66.2 °F 25% 29.47 in 5.6 mi NNW 3.5 mph - N/A   Unknown
2:00 PM 109.4 °F 117.7 °F 68.0 °F 27% 29.44 in 5.0 mi WNW 12.7 mph - N/A   Unknown
3:00 PM 107.6 °F 117.0 °F 69.8 °F 30% 29.44 in 5.6 mi NNW 12.7 mph - N/A   Partly Cloudy
4:00 PM 107.6 °F 117.0 °F 69.8 °F 30% 29.42 in 5.0 mi NNW 16.1 mph - N/A   Partly Cloudy
5:00 PM 104.0 °F 114.0 °F 71.6 °F 35% 29.42 in 5.0 mi NNW 19.6 mph - N/A   Partly Cloudy
6:00 PM 102.2 °F 114.4 °F 73.4 °F 40% 29.42 in 5.0 mi NNW 16.1 mph - N/A   Partly Cloudy
6:38 PM 102.2 °F 111.7 °F 71.6 °F 37% 29.47 in 2.8 mi NNE 16.1 mph - N/A   Widespread Dust
7:00 PM 102 °F - 71 °F 28% 29.47 in 2 mi NE 18.4 mph - -   Widespread Dust
7:00 PM 102.2 °F 111.7 °F 71.6 °F 37% 29.47 in 1.6 mi NE 18.4 mph - N/A   Widespread Dust
7:18 PM 100.4 °F 104.9 °F 66.2 °F 33% 29.47 in 3.1 mi ENE 17.3 mph - N/A   Unknown
8:00 PM 100.4 °F 103.6 °F 64.4 °F 31% 29.47 in 5.0 mi East 11.5 mph - N/A   Unknown
9:00 PM 98.6 °F 102.8 °F 66.2 °F 35% 29.47 in - East 5.8 mph - N/A   Clear
10:00 PM 98.6 °F 101.0 °F 64.4 °F 32% 29.50 in - NE 4.6 mph - N/A   Clear
11:00 PM 98.6 °F 102.8 °F 66.2 °F 35% 29.50 in - ENE 6.9 mph - N/A   Clear